• En España
  • Lista de países
  • Para 7 días
  • Temperatura del agua
  • Mapa Satelital
  • El tiempo en el mapa
  • Informadores
  • user-avatar
    Iniciar sesión

    Tiempo cada hora Quito

    Hoy, 19 Octubre, Viernes

    Tiempo Temperatura Precipitaciones Viento Presión Humedad
    00:00 +19°C° 0.8 mm 2 mps 621 mmHg 77%
    01:00 +18°C° 0 mm 2 mps 621 mmHg 79%
    02:00 +19°C° 0.1 mm 1 mps 621 mmHg 80%
    03:00 +19°C° 0.1 mm 1 mps 621 mmHg 81%
    04:00 +18°C° 0.1 mm 1 mps 621 mmHg 83%
    05:00 +20°C° 0 mm 1 mps 622 mmHg 77%
    06:00 +21°C° 0 mm 1 mps 623 mmHg 71%
    07:00 +23°C° 0 mm 1 mps 623 mmHg 65%
    08:00 +26°C° 0 mm 1 mps 624 mmHg 53%
    09:00 +29°C° 0 mm 1 mps 625 mmHg 42%
    10:00 +33°C° 0 mm 1 mps 626 mmHg 30%
    11:00 +34°C° 0 mm 2 mps 625 mmHg 28%
    12:00 +34°C° 0 mm 3 mps 625 mmHg 27%
    13:00 +33°C° 0 mm 4 mps 624 mmHg 25%
    14:00 +33°C° 0 mm 4 mps 623 mmHg 26%
    15:00 +31°C° 0 mm 3 mps 623 mmHg 28%
    16:00 +30°C° 0 mm 3 mps 623 mmHg 30%
    17:00 +28°C° 0 mm 2 mps 622 mmHg 35%
    18:00 +26°C° 0 mm 2 mps 622 mmHg 39%
    19:00 +24°C° 0 mm 1 mps 622 mmHg 44%
    20:00 +24°C° 0.1 mm 1 mps 622 mmHg 48%
    21:00 +23°C° 0.1 mm 1 mps 622 mmHg 52%
    22:00 +22°C° 0.1 mm 1 mps 622 mmHg 56%
    23:00 +21°C° 0.3 mm 1 mps 622 mmHg 61%

    Mañana, 20 Octubre, Sábado

    Tiempo Temperatura Precipitaciones Viento Presión Humedad
    00:00 +21°C° 0.3 mm 1 mps 622 mmHg 66%
    01:00 +20°C° 0.3 mm 1 mps 622 mmHg 70%
    02:00 +19°C° 0.5 mm 1 mps 621 mmHg 75%
    03:00 +19°C° 0.5 mm 1 mps 621 mmHg 79%
    04:00 +18°C° 0.5 mm 1 mps 621 mmHg 83%
    05:00 +18°C° 0.7 mm 1 mps 622 mmHg 83%
    06:00 +18°C° 0.7 mm 2 mps 622 mmHg 83%
    07:00 +18°C° 0.7 mm 2 mps 623 mmHg 83%
    08:00 +21°C° 0.1 mm 2 mps 623 mmHg 71%
    09:00 +24°C° 0.1 mm 2 mps 624 mmHg 59%
    10:00 +26°C° 0.1 mm 2 mps 624 mmHg 47%
    11:00 +28°C° 0 mm 3 mps 624 mmHg 42%
    12:00 +29°C° 0 mm 3 mps 624 mmHg 38%
    13:00 +30°C° 0 mm 3 mps 624 mmHg 33%
    14:00 +30°C° 0 mm 3 mps 624 mmHg 32%
    15:00 +30°C° 0 mm 3 mps 623 mmHg 32%
    16:00 +30°C° 0 mm 3 mps 623 mmHg 31%
    17:00 +28°C° 0.2 mm 2 mps 623 mmHg 38%
    18:00 +26°C° 0.2 mm 2 mps 622 mmHg 44%
    19:00 +23°C° 0.2 mm 1 mps 622 mmHg 50%
    20:00 +23°C° 0.2 mm 1 mps 622 mmHg 54%
    21:00 +22°C° 0.2 mm 1 mps 622 mmHg 59%
    22:00 +21°C° 0.2 mm 1 mps 622 mmHg 63%
    23:00 +20°C° 0.4 mm 1 mps 622 mmHg 67%

    Pasado mañana, 21 Octubre, Domingo

    Tiempo Temperatura Precipitaciones Viento Presión Humedad
    00:00 +20°C° 0.4 mm 1 mps 622 mmHg 70%
    01:00 +20°C° 0.4 mm 1 mps 622 mmHg 73%
    02:00 +19°C° 0.7 mm 1 mps 622 mmHg 77%
    03:00 +19°C° 0.7 mm 1 mps 621 mmHg 81%
    04:00 +19°C° 0.7 mm 1 mps 621 mmHg 84%
    05:00 +20°C° 0 mm 1 mps 622 mmHg 79%
    06:00 +19°C° 0 mm 0 mps 622 mmHg 73%
    07:00 +20°C° 0 mm 0 mps 623 mmHg 68%
    08:00 +25°C° 0 mm 1 mps 624 mmHg 57%
    09:00 +27°C° 0 mm 2 mps 625 mmHg 47%
    10:00 +30°C° 0 mm 3 mps 626 mmHg 36%
    11:00 +30°C° 0 mm 3 mps 625 mmHg 35%
    12:00 +31°C° 0 mm 3 mps 625 mmHg 33%
    13:00 +32°C° 0 mm 4 mps 624 mmHg 31%
    14:00 +30°C° 0 mm 3 mps 624 mmHg 33%
    15:00 +30°C° 0 mm 3 mps 623 mmHg 35%
    16:00 +29°C° 0 mm 3 mps 623 mmHg 37%
    17:00 +27°C° 0.7 mm 3 mps 623 mmHg 50%
    18:00 +24°C° 0.7 mm 2 mps 622 mmHg 62%
    19:00 +20°C° 0.7 mm 2 mps 622 mmHg 75%
    20:00 +20°C° 1 mm 2 mps 623 mmHg 79%
    21:00 +19°C° 1 mm 2 mps 623 mmHg 83%
    22:00 +18°C° 1 mm 2 mps 623 mmHg 87%
    23:00 +18°C° 0.7 mm 2 mps 623 mmHg 88%

    22 Octubre, Lunes

    Tiempo Temperatura Precipitaciones Viento Presión Humedad
    00:00 +18°C° 0.7 mm 2 mps 622 mmHg 89%
    01:00 +18°C° 0.7 mm 2 mps 621 mmHg 90%
    02:00 +18°C° 0.2 mm 2 mps 621 mmHg 89%
    03:00 +18°C° 0.2 mm 2 mps 621 mmHg 89%
    04:00 +18°C° 0.2 mm 2 mps 622 mmHg 88%
    05:00 +18°C° 0.1 mm 2 mps 622 mmHg 86%
    06:00 +19°C° 0.1 mm 1 mps 623 mmHg 84%
    07:00 +20°C° 0.1 mm 1 mps 623 mmHg 82%
    08:00 +21°C° 0.8 mm 1 mps 624 mmHg 78%
    09:00 +21°C° 0.8 mm 2 mps 624 mmHg 73%
    10:00 +23°C° 0.8 mm 2 mps 625 mmHg 69%
    11:00 +21°C° 1.5 mm 2 mps 624 mmHg 72%
    12:00 +21°C° 1.5 mm 2 mps 623 mmHg 74%
    13:00 +20°C° 1.5 mm 2 mps 622 mmHg 77%
    14:00 +20°C° 1.6 mm 2 mps 622 mmHg 80%
    15:00 +19°C° 1.6 mm 2 mps 622 mmHg 82%
    16:00 +19°C° 1.6 mm 2 mps 622 mmHg 85%
    17:00 +18°C° 0.7 mm 2 mps 622 mmHg 86%
    18:00 +18°C° 0.7 mm 2 mps 622 mmHg 88%
    19:00 +17°C° 0.7 mm 2 mps 623 mmHg 90%
    20:00 +17°C° 0.1 mm 2 mps 623 mmHg 90%
    21:00 +18°C° 0.1 mm 1 mps 623 mmHg 91%
    22:00 +16°C° 0.1 mm 1 mps 623 mmHg 91%
    23:00 +16°C° 0.1 mm 1 mps 623 mmHg 91%

    23 Octubre, Martes

    Tiempo Temperatura Precipitaciones Viento Presión Humedad
    00:00 +16°C° 0.1 mm 1 mps 622 mmHg 91%
    01:00 +14°C° 0.1 mm 0 mps 622 mmHg 91%
    02:00 +15°C° 0.5 mm 0 mps 622 mmHg 91%
    03:00 +15°C° 0.5 mm 0 mps 622 mmHg 91%
    04:00 +15°C° 0.5 mm 0 mps 622 mmHg 91%
    05:00 +16°C° 0.6 mm 1 mps 623 mmHg 90%
    06:00 +18°C° 0.6 mm 1 mps 623 mmHg 89%
    07:00 +18°C° 0.6 mm 1 mps 624 mmHg 88%
    08:00 +18°C° 0.9 mm 2 mps 624 mmHg 86%
    09:00 +18°C° 0.9 mm 3 mps 624 mmHg 85%
    10:00 +18°C° 0.9 mm 3 mps 624 mmHg 83%
    11:00 +19°C° 0.3 mm 3 mps 624 mmHg 78%
    12:00 +20°C° 0.3 mm 3 mps 624 mmHg 73%
    13:00 +20°C° 0.3 mm 3 mps 623 mmHg 68%
    14:00 +21°C° 0 mm 3 mps 623 mmHg 63%
    15:00 +22°C° 0 mm 3 mps 624 mmHg 58%
    16:00 +24°C° 0 mm 2 mps 624 mmHg 53%
    17:00 +21°C° 0 mm 2 mps 623 mmHg 59%
    18:00 +20°C° 0 mm 1 mps 623 mmHg 65%
    19:00 +19°C° 0 mm 1 mps 623 mmHg 72%
    20:00 +18°C° 0 mm 1 mps 623 mmHg 72%
    21:00 +18°C° 0 mm 1 mps 624 mmHg 73%
    22:00 +18°C° 0 mm 1 mps 624 mmHg 74%
    23:00 +18°C° 0.2 mm 1 mps 623 mmHg 77%

    24 Octubre, Miércoles

    Tiempo Temperatura Precipitaciones Viento Presión Humedad
    00:00 +16°C° 0.2 mm 1 mps 623 mmHg 81%
    01:00 +15°C° 0.2 mm 0 mps 623 mmHg 84%
    02:00 +15°C° 0.1 mm 0 mps 622 mmHg 85%
    03:00 +15°C° 0.1 mm 0 mps 622 mmHg 86%
    04:00 +15°C° 0.1 mm 0 mps 622 mmHg 87%
    05:00 +15°C° 0 mm 0 mps 623 mmHg 83%
    06:00 +16°C° 0 mm 0 mps 624 mmHg 80%
    07:00 +17°C° 0 mm 0 mps 624 mmHg 77%
    08:00 +22°C° 0 mm 1 mps 625 mmHg 65%
    09:00 +24°C° 0 mm 1 mps 626 mmHg 54%
    10:00 +27°C° 0 mm 1 mps 626 mmHg 43%
    11:00 +27°C° 0 mm 1 mps 626 mmHg 42%
    12:00 +27°C° 0 mm 2 mps 625 mmHg 42%
    13:00 +27°C° 0 mm 2 mps 624 mmHg 41%
    14:00 +27°C° 0 mm 1 mps 624 mmHg 43%
    15:00 +26°C° 0 mm 1 mps 623 mmHg 44%
    16:00 +24°C° 0 mm 0 mps 623 mmHg 46%
    17:00 +25°C° 0 mm 1 mps 623 mmHg 50%
    18:00 +23°C° 0 mm 1 mps 623 mmHg 54%
    19:00 +22°C° 0 mm 1 mps 624 mmHg 58%
    20:00 +21°C° 0 mm 1 mps 624 mmHg 60%
    21:00 +21°C° 0 mm 1 mps 624 mmHg 62%
    22:00 +20°C° 0 mm 1 mps 624 mmHg 65%
    23:00 +19°C° 0.2 mm 2 mps 623 mmHg 70%
    Mostrar más